1496210400.49,26033,19.19,74154.5,8.47,4.37,4.37,0,*72
1496210401.72,26034,19.19,74140.0,8.45,4.59,4.79,0,*75
1496210402.96,26035,19.19,74142.5,8.47,4.85,5.05,0,*7D
1496210404.19,26036,19.25,74158.0,8.47,4.81,5.05,0,*7A
1496210405.39,26037,19.25,74166.3,8.51,4.45,4.45,0,*71
1496210406.59,26038,19.19,74154.5,8.49,4.63,4.41,0,*77
1496210407.8,26039,19.19,74154.0,8.51,4.15,3.25,0,*7B
1496210409.0,26040,19.25,74158.5,8.49,3.59,1.85,0,*7B
1496210410.23,26041,19.19,74162.3,8.51,2.05,-0.03,0,*59
1496210411.47,26042,19.19,74158.3,8.49,-0.27,-2.75,0,*4F
1496210412.66,26043,19.25,74168.8,8.49,-2.43,-4.21,0,*79
1496210413.85,26044,19.25,74158.8,8.49,-4.17,-4.21,0,*79
1496210415.1,26045,19.25,74158.5,8.49,-3.67,-2.55,0,*7D
1496210416.35,26046,19.19,74154.8,8.47,-1.83,0.67,0,*66
1496210417.61,26047,19.19,74162.5,8.47,0.55,2.81,0,*4A
1496210418.86,26048,19.25,74156.8,8.47,2.43,3.19,0,*70
1496210420.09,26049,19.25,74162.8,8.49,3.49,3.07,0,*7B
1496210421.31,26050,19.19,74160.0,8.51,2.31,0.83,0,*4B
1496210422.54,26051,19.19,74154.5,8.51,0.75,-1.63,0,*6A
1496210423.72,26052,19.19,74152.3,8.49,-0.03,-1.63,0,*7C
1496210424.93,26053,19.19,74148.3,8.47,-0.53,-1.79,0,*4D
1496210426.17,26054,19.19,74152.5,8.47,-1.21,-1.95,0,*7C
1496210427.41,26055,19.25,74156.5,8.47,-1.79,-2.03,0,*7C
1496210428.63,26056,19.19,74146.0,8.45,-1.17,-1.09,0,*7C
1496210429.89,26057,19.19,74152.3,8.47,-1.09,-0.85,0,*45
1496210431.13,26058,19.25,74162.0,8.47,-1.17,-0.93,0,*42
1496210432.34,26059,19.19,74144.0,8.47,-2.91,-0.81,0,*4D
1496210433.59,26060,19.19,74138.5,8.47,-1.95,1.63,0,*50
1496210434.77,26061,19.25,74132.8,8.49,1.01,4.11,0,*7F
1496210436.0,26062,19.19,74118.3,8.55,3.67,6.07,0,*76
1496210437.22,26063,19.25,74104.3,8.55,5.77,7.09,0,*7F
1496210438.43,26064,19.25,74122.5,8.63,6.29,6.93,0,*77
1496210439.66,26065,19.25,74124.8,8.65,6.51,6.65,0,*76
1496210440.87,26066,19.25,74134.0,8.69,6.39,6.11,0,*74
1496210442.1,26067,19.25,74154.0,8.73,5.55,5.01,0,*75
1496210443.27,26068,19.25,74158.0,8.73,5.07,4.19,0,*75
1496210444.47,26069,19.25,74158.5,8.77,4.41,3.25,0,*7B
1496210445.7,26070,19.19,74156.8,8.77,3.29,2.05,0,*79
1496210446.93,26071,19.25,74148.8,8.81,1.79,1.67,0,*71
1496210448.18,26072,19.25,74142.3,8.81,1.89,2.39,0,*75
1496210449.41,26073,19.25,74138.5,8.85,2.95,3.23,0,*74
1496210450.63,26074,19.25,74150.0,8.91,3.53,3.11,0,*7C
1496210451.87,26075,19.25,74162.8,8.89,2.55,0.75,0,*42
1496210453.1,26076,19.19,74154.3,8.93,0.79,-1.51,0,*6C
1496210454.3,26077,19.25,74146.8,8.95,-0.93,-1.51,0,*42
1496210455.51,26078,19.25,74152.0,8.95,-0.03,-1.47,0,*73
1496210456.74,26079,19.25,74150.3,8.99,-1.01,-1.87,0,*71
1496210457.93,26080,19.25,74156.5,9.03,-1.33,-3.31,0,*7B
1496210459.14,26081,19.19,74152.5,9.05,-4.29,-4.41,0,*72
1496210460.34,26082,19.25,74152.5,9.09,-4.93,-4.41,0,*7C
1496210461.56,26083,19.25,74154.8,9.09,-5.93,-6.05,0,*7E
1496210462.81,26084,19.25,74156.5,9.11,-7.53,-8.07,0,*72
1496210464.03,26085,19.25,74146.8,9.09,-7.11,-7.69,0,*7B
1496210465.25,26086,19.19,74142.5,9.09,-8.45,-7.69,0,*76
1496210466.45,26087,19.25,74144.0,9.05,-8.25,-6.77,0,*73
1496210467.66,26088,19.25,74144.0,9.05,-6.55,-3.19,0,*78
1496210468.89,26089,19.25,74140.0,9.05,-2.99,-1.39,0,*7D
1496210470.14,26090,19.25,74134.5,9.09,-2.11,-1.99,0,*73
1496210471.37,26091,19.25,74134.8,9.09,-1.33,-2.11,0,*72
1496210472.61,26092,19.19,74132.8,9.11,-1.21,-1.09,0,*71
1496210473.82,26093,19.25,74142.8,9.13,-0.85,-0.41,0,*70
1496210475.06,26094,19.25,74134.3,9.15,0.21,1.43,0,*4C
1496210476.26,26095,19.25,74142.0,9.17,1.79,2.01,0,*76
1496210477.52,26096,19.25,74146.3,9.19,1.71,1.55,0,*71
1496210478.74,26097,19.25,74146.0,9.21,1.89,1.13,0,*7E
1496210479.94,26098,19.25,74150.5,9.21,1.25,0.43,0,*43
1496210481.18,26099,19.25,74152.3,9.19,-1.09,-1.75,0,*73
1496210482.39,26100,19.25,74128.3,9.19,-2.91,-2.27,0,*74
1496210483.58,26101,19.25,74134.8,9.17,-0.29,0.25,0,*57
1496210484.78,26102,19.25,74140.8,9.15,1.05,0.43,0,*44
1496210486.0,26103,19.25,74134.8,9.15,-0.03,-0.89,0,*44
1496210487.21,26104,19.25,74140.5,9.15,-2.15,-4.29,0,*78
1496210488.47,26105,19.25,74144.8,9.15,-6.63,-7.61,0,*73
1496210489.68,26106,19.25,74152.0,9.13,-9.83,-8.41,0,*7A
1496210490.93,26107,19.25,74158.5,9.11,-10.53,-7.43,0,*41
1496210492.15,26108,19.25,74150.3,9.11,-8.21,-4.37,0,*72
1496210493.38,26109,19.19,74146.3,9.05,-4.81,-1.51,0,*75
1496210494.56,26110,19.25,74158.3,9.03,-2.35,-1.29,0,*7D
1496210495.77,26111,19.25,74148.0,9.01,-1.79,-1.51,0,*7A
1496210497.0,26112,19.25,74142.8,8.97,-0.97,-0.61,0,*74
1496210498.18,26113,19.25,74146.8,8.99,-0.49,0.41,0,*57
1496210499.43,26114,19.25,74154.8,8.97,0.51,2.05,0,*48
1496210500.65,26115,19.25,74152.5,8.99,1.25,3.37,0,*75
1496210501.87,26116,19.25,74136.5,8.99,1.93,3.97,0,*71
1496210503.07,26117,19.25,74138.3,8.99,1.75,3.37,0,*72
1496210504.27,26118,19.25,74146.0,8.99,3.11,4.23,0,*7F
1496210505.48,26119,19.25,74132.5,8.99,3.85,4.71,0,*74
1496210506.71,26120,19.19,74124.8,9.01,4.71,5.29,0,*7E
1496210507.9,26121,19.25,74132.8,9.03,5.73,6.07,0,*71
1496210509.11,26122,19.25,74128.3,9.03,6.33,6.35,0,*74
1496210510.34,26123,19.25,74124.0,9.09,6.17,6.13,0,*7D
1496210511.52,26124,19.25,74126.8,9.09,6.07,5.95,0,*76
1496210512.75,26125,19.25,74124.8,9.11,5.33,5.27,0,*73
1496210513.97,26126,19.25,74134.8,9.13,5.51,5.51,0,*77
1496210515.21,26127,19.25,74146.3,9.15,5.93,5.99,0,*7A
1496210516.4,26128,19.25,74140.3,9.17,5.71,5.77,0,*7B
1496210517.62,26129,19.25,74150.5,9.15,5.41,5.77,0,*7B
1496210518.85,26130,19.25,74166.3,9.19,5.23,5.85,0,*76
1496210520.07,26131,19.25,74148.5,9.19,5.45,6.17,0,*7F
1496210521.28,26132,19.25,74148.3,9.21,6.35,7.09,0,*7D
1496210522.48,26133,19.25,74154.0,9.25,6.83,7.27,0,*79
1496210523.74,26134,19.25,74154.0,9.27,6.61,6.91,0,*7C
1496210524.99,26135,19.25,74150.3,9.31,6.13,6.39,0,*7D
1496210526.21,26136,19.25,74150.0,9.31,6.53,6.83,0,*7B
1496210527.41,26137,19.25,74150.0,9.33,6.97,7.11,0,*7A
1496210528.63,26138,19.25,74150.3,9.35,6.75,6.87,0,*71
1496210529.83,26139,19.19,74148.8,9.37,6.93,7.11,0,*74
1496210531.09,26140,19.25,74150.8,9.39,6.35,6.47,0,*7A
1496210532.3,26141,19.25,74146.5,9.41,6.03,6.07,0,*75
1496210533.54,26142,19.25,74154.0,9.43,6.43,6.51,0,*73
1496210534.77,26143,19.25,74154.5,9.41,6.17,6.25,0,*72
1496210536.0,26144,19.25,74150.3,9.43,6.53,6.51,0,*74
1496210537.26,26145,19.25,74148.0,9.41,6.47,6.35,0,*70
1496210538.47,26146,19.25,74156.3,9.43,6.39,6.07,0,*79
1496210539.7,26147,19.25,74172.5,9.45,6.21,5.73,0,*77
1496210540.97,26148,19.25,74144.5,9.45,4.31,3.41,0,*7C
1496210542.17,26149,19.25,74132.0,9.43,3.59,2.59,0,*7A
1496210543.4,26150,19.25,74132.0,9.41,3.81,2.73,0,*7D
1496210544.63,26151,19.25,74138.8,9.39,3.93,2.89,0,*75
1496210545.85,26152,19.25,74136.0,9.39,3.79,2.99,0,*73
1496210547.07,26153,19.25,74144.8,9.39,3.59,2.69,0,*7F
1496210548.31,26154,19.25,74146.5,9.39,3.19,2.05,0,*76
1496210549.53,26155,19.25,74146.3,9.39,2.61,2.25,0,*7B
1496210550.78,26156,19.25,74154.5,9.41,2.81,2.55,0,*7E
1496210552.04,26157,19.25,74152.3,9.41,2.43,1.93,0,*78
1496210553.24,26158,19.25,74152.8,9.43,2.39,1.75,0,*70
1496210554.48,26159,19.25,74158.8,9.43,2.09,2.43,0,*74
1496210555.73,26160,19.25,74152.0,9.41,2.21,3.45,0,*71
1496210556.96,26161,19.25,74148.5,9.43,3.53,4.79,0,*7E
1496210558.22,26162,19.25,74124.8,9.45,4.93,5.51,0,*7B
1496210559.45,26163,19.25,74122.0,9.47,4.63,4.93,0,*78
1496210560.67,26164,19.25,74116.8,9.45,4.23,4.59,0,*7F
1496210561.88,26165,19.25,74122.0,9.47,4.41,4.75,0,*76
1496210563.08,26166,19.25,74132.3,9.53,5.23,5.49,0,*7B
1496210564.31,26167,19.25,74154.3,9.49,6.13,6.21,0,*7C
1496210565.51,26168,19.25,74142.5,9.55,6.51,6.21,0,*78
1496210566.72,26169,19.25,74138.5,9.55,6.17,5.95,0,*77
1496210567.92,26170,19.25,74146.3,9.57,5.63,5.63,0,*74
1496210569.14,26171,19.25,74146.3,9.57,5.27,5.49,0,*7D
1496210570.36,26172,19.25,74152.3,9.57,5.37,5.81,0,*7B
1496210571.59,26173,19.25,74166.5,9.61,5.67,5.81,0,*7A
1496210572.79,26174,19.25,74162.0,9.61,5.11,5.29,0,*7E
1496210574.0,26175,19.25,74156.8,9.61,4.89,4.85,0,*78
1496210575.22,26176,19.25,74148.3,9.61,5.77,5.45,0,*76
1496210576.45,26177,19.25,74144.8,9.65,5.81,5.11,0,*7B
1496210577.68,26178,19.25,74156.0,9.65,4.57,2.77,0,*79
1496210578.87,26179,19.25,74160.0,9.63,3.03,0.97,0,*44
1496210580.05,26180,19.25,74158.5,9.63,-0.49,-1.59,0,*4C
1496210581.27,26181,19.25,74154.0,9.59,-2.71,-2.95,0,*7E
1496210582.48,26182,19.25,74152.3,9.55,-2.51,-2.31,0,*7D
1496210583.67,26183,19.25,74148.3,9.55,-2.95,-2.19,0,*7E
1496210584.88,26184,19.25,74148.8,9.53,-2.99,-1.17,0,*7E
1496210586.09,26185,19.25,74148.3,9.47,-2.67,-0.69,0,*43
1496210587.3,26186,19.25,74152.8,9.45,-1.67,-0.49,0,*43
1496210588.51,26187,19.25,74152.0,9.43,-0.73,0.47,0,*53
1496210589.73,26188,19.25,74162.5,9.41,-0.49,0.33,0,*54
1496210590.93,26189,19.25,74154.3,9.41,-0.61,0.43,0,*58
1496210592.16,26190,19.25,74156.0,9.41,-0.65,1.17,0,*64
1496210593.38,26191,19.25,74160.0,9.41,-0.29,1.29,0,*60
1496210594.61,26192,19.25,74162.0,9.37,-2.03,0.21,0,*61
1496210595.8,26193,19.25,74160.3,9.37,-2.43,0.33,0,*67
1496210597.03,26194,19.25,74150.8,9.33,-2.59,0.29,0,*64
1496210598.28,26195,19.25,74152.0,9.27,-1.05,0.79,0,*6F
1496210599.46,26196,19.25,74150.3,9.23,0.01,0.97,0,*40
1496210600.72,26197,19.25,74142.8,9.23,2.43,2.73,0,*7D
1496210601.95,26198,19.25,74152.5,9.19,3.75,4.19,0,*75
1496210603.18,26199,19.25,74152.0,9.23,4.07,4.59,0,*7B
1496210604.36,26200,19.25,74154.8,9.21,4.15,4.49,0,*78
1496210605.53,26201,19.25,74144.5,9.21,4.07,4.11,0,*77
1496210606.74,26202,19.25,74138.5,9.23,4.11,4.11,0,*71
1496210607.94,26203,19.25,74152.0,9.23,4.23,4.23,0,*70
1496210609.12,26204,19.25,74142.3,9.21,4.15,4.11,0,*71
1496210610.29,26205,19.25,74132.8,9.21,4.81,4.81,0,*74
1496210611.49,26206,19.25,74142.0,9.21,4.45,4.67,0,*77
1496210612.7,26207,19.25,74146.3,9.21,4.81,5.05,0,*7B
1496210613.89,26208,19.25,74144.8,9.21,4.89,5.07,0,*7E
1496210615.11,26209,19.25,74148.3,9.23,5.05,5.29,0,*74
1496210616.32,26210,19.25,74154.0,9.21,4.81,4.93,0,*73
1496210617.58,26211,19.25,74150.5,9.23,4.59,4.59,0,*73
1496210618.83,26212,19.25,74150.0,9.23,4.67,4.59,0,*7D
1496210620.05,26213,19.25,74150.8,9.23,5.63,5.73,0,*70
1496210621.23,26214,19.25,74152.8,9.21,5.59,5.67,0,*79
1496210622.48,26215,19.25,74150.8,9.23,5.77,5.85,0,*7A
1496210623.69,26216,19.25,74146.3,9.27,6.21,6.33,0,*73
1496210624.9,26217,19.25,74144.0,9.27,6.03,6.11,0,*72
1496210626.14,26218,19.25,74146.5,9.27,5.89,6.03,0,*7F
1496210627.35,26219,19.25,74150.8,9.31,6.03,6.25,0,*7C
1496210628.54,26220,19.25,74156.0,9.31,5.71,5.95,0,*78
1496210629.78,26221,19.25,74156.5,9.31,6.25,6.51,0,*70
1496210631.0,26222,19.25,74156.5,9.35,6.07,6.17,0,*75
1496210632.18,26223,19.25,74156.5,9.37,6.03,6.03,0,*77
1496210633.36,26224,19.25,74160.5,9.37,6.11,6.03,0,*73
1496210634.57,26225,19.25,74160.5,9.39,6.03,5.33,0,*7F
1496210635.79,26226,19.25,74170.3,9.39,5.73,4.49,0,*74
1496210637.04,26227,19.25,74174.8,9.39,4.93,3.11,0,*70
1496210638.28,26228,19.25,74176.5,9.39,3.79,1.13,0,*7C
1496210639.49,26229,19.25,74178.5,9.39,1.05,-1.63,0,*5E
1496210640.67,26230,19.25,74174.3,9.37,-0.77,-1.17,0,*42
1496210641.84,26231,19.25,74172.8,9.37,-1.79,-0.65,0,*48
1496210643.09,26232,19.25,74174.5,9.41,-0.89,0.71,0,*5C
1496210644.29,26233,19.25,74170.8,9.39,-0.15,1.79,0,*6E
1496210645.51,26234,19.25,74166.3,9.39,1.75,3.53,0,*79
1496210646.71,26235,19.25,74170.3,9.43,3.25,4.59,0,*7F
1496210647.92,26236,19.25,74168.8,9.43,3.37,4.49,0,*7E
1496210649.12,26237,19.25,74168.8,9.47,3.33,4.41,0,*77
1496210650.35,26238,19.25,74162.5,9.45,4.01,5.11,0,*78
1496210651.52,26239,19.25,74166.0,9.47,4.49,5.15,0,*73
1496210652.7,26240,19.25,74162.0,9.47,4.81,5.19,0,*75
1496210653.9,26241,19.25,74160.0,9.47,4.81,5.05,0,*79
1496210655.13,26242,19.25,74160.0,9.49,5.05,4.81,0,*74
1496210656.36,26243,19.25,74164.5,9.49,4.05,3.81,0,*73
1496210657.57,26244,19.25,74162.0,9.49,4.33,3.81,0,*71
1496210658.76,26245,19.25,74162.3,9.47,2.27,1.43,0,*71
1496210660.02,26246,19.25,74160.5,9.45,0.91,-0.23,0,*55
1496210661.2,26247,19.25,74160.5,9.43,-0.37,-1.59,0,*4F
1496210662.42,26248,19.25,74160.0,9.41,-1.71,-0.29,0,*47
1496210663.61,26249,19.25,74154.5,9.37,-0.07,2.13,0,*51
1496210664.83,26250,19.25,74150.0,9.37,1.89,3.23,0,*71
1496210666.03,26251,19.25,74144.0,9.37,3.11,3.59,0,*7E
1496210667.2,26252,19.25,74148.8,9.37,2.95,2.99,0,*7D
1496210668.4,26253,19.25,74142.5,9.33,3.79,3.63,0,*7F
1496210669.57,26254,19.25,74146.5,9.33,4.37,4.27,0,*72
1496210670.8,26255,19.25,74152.3,9.35,4.19,3.97,0,*75
1496210671.99,26256,19.25,74150.8,9.35,4.49,4.07,0,*7D
1496210673.22,26257,19.25,74144.3,9.35,4.71,4.11,0,*70
1496210674.42,26258,19.25,74144.5,9.35,4.33,3.89,0,*7F
1496210675.64,26259,19.25,74144.8,9.35,3.55,3.07,0,*7F
1496210676.9,26260,19.25,74150.3,9.35,3.75,3.49,0,*7D
1496210678.15,26261,19.25,74150.5,9.35,3.67,3.79,0,*7C
1496210679.32,26262,19.25,74152.5,9.37,3.93,4.11,0,*7F
1496210680.55,26263,19.25,74150.5,9.39,4.11,4.63,0,*78
1496210681.79,26264,19.25,74146.0,9.41,4.33,5.01,0,*75
1496210683.0,26265,19.25,74128.0,9.43,4.19,4.71,0,*78
1496210684.21,26266,19.25,74130.5,9.43,4.81,4.93,0,*76
1496210685.39,26267,19.25,74146.3,9.43,4.45,4.23,0,*74
1496210686.59,26268,19.25,74128.8,9.43,2.81,2.35,0,*74
1496210687.84,26269,19.25,74124.8,9.41,2.05,1.67,0,*7F
1496210689.07,26270,19.25,74132.5,9.37,2.47,2.13,0,*70
1496210690.28,26271,19.25,74136.8,9.37,2.13,1.89,0,*70
1496210691.5,26272,19.25,74138.5,9.35,0.41,-0.29,0,*52
1496210692.72,26273,19.25,74142.5,9.33,1.09,0.17,0,*48
1496210693.95,26274,19.25,74138.0,9.31,1.83,0.21,0,*4A
1496210695.2,26275,19.25,74142.5,9.31,0.95,-1.83,0,*69
1496210696.44,26276,19.25,74146.0,9.33,-2.11,-4.73,0,*71
1496210697.63,26277,19.25,74144.5,9.33,-3.11,-4.41,0,*70
1496210698.84,26278,19.25,74146.8,9.27,-2.15,-2.95,0,*70
1496210700.1,26279,19.25,74146.5,9.31,-0.89,-2.75,0,*4F
1496210701.28,26280,19.25,74146.5,9.33,-1.67,-3.23,0,*78
1496210702.49,26281,19.25,74146.3,9.35,-3.11,-4.37,0,*7E
1496210703.7,26282,19.25,74140.8,9.35,-4.65,-6.01,0,*7E
1496210704.89,26283,19.25,74144.3,9.33,-7.15,-9.01,0,*72
1496210706.08,26284,19.25,74142.0,9.33,-9.23,-9.71,0,*79
1496210707.32,26285,19.25,74146.8,9.27,-9.61,-11.15,0,*40
1496210708.55,26286,19.25,74144.3,9.27,-9.61,-9.31,0,*7C
1496210709.79,26287,19.25,74146.0,9.27,-9.61,-9.89,0,*7E
1496210711.0,26288,19.25,74144.0,9.25,-9.89,-10.63,0,*49
1496210712.25,26289,19.25,74142.0,9.25,-11.73,-12.11,0,*73
1496210713.53,26290,19.25,74144.5,9.23,-11.37,-11.63,0,*7B
1496210714.8,26291,19.25,74140.3,9.23,-13.01,-12.75,0,*79
1496210716.08,26292,19.25,74146.3,9.19,-13.61,-13.29,0,*7D
1496210717.3,26293,19.25,74146.0,9.19,-13.93,-13.47,0,*79
1496210718.54,26294,19.25,74144.0,9.19,-14.23,-13.79,0,*7F
1496210719.8,26295,19.25,74146.5,9.17,-15.39,-14.97,0,*7D
1496210721.08,26296,19.25,74144.0,9.11,-16.27,-16.23,0,*79
1496210722.31,26297,19.25,74140.8,9.09,-15.89,-15.49,0,*79
1496210723.56,26298,19.25,74140.8,9.03,-15.85,-15.43,0,*7A
1496210724.82,26299,19.25,74146.5,9.01,-14.83,-14.61,0,*7F
1496210726.07,26300,19.25,74146.8,8.97,-16.41,-16.27,0,*7C
1496210727.29,26301,19.25,74144.5,8.93,-15.71,-15.63,0,*7A
1496210728.52,26302,19.25,74146.3,8.89,-15.75,-15.49,0,*7E
1496210729.8,26303,19.25,74144.3,8.85,-14.93,-14.83,0,*7D
1496210731.05,26304,19.25,74142.3,8.85,-15.71,-15.39,0,*77
1496210732.29,26305,19.25,74138.3,8.85,-15.21,-14.69,0,*77
1496210733.5,26306,19.25,74144.5,8.79,-13.51,-12.89,0,*7E
1496210734.76,26307,19.25,74146.3,8.79,-13.83,-13.37,0,*74
1496210736.01,26308,19.25,74150.8,8.77,-13.93,-13.33,0,*70
1496210737.27,26309,19.25,74152.3,8.79,-13.97,-13.29,0,*70
1496210738.49,26310,19.25,74146.5,8.75,-14.65,-14.19,0,*7A
1496210739.72,26311,19.25,74148.3,8.75,-15.29,-14.65,0,*79
1496210740.94,26312,19.25,74150.3,8.71,-15.15,-14.69,0,*7D
1496210742.19,26313,19.25,74152.0,8.71,-15.85,-15.29,0,*70
1496210743.41,26314,19.25,74152.0,8.69,-15.75,-15.29,0,*71
1496210744.64,26315,19.25,74150.8,8.67,-16.59,-16.03,0,*78
1496210745.92,26316,19.25,74146.3,8.63,-15.85,-15.21,0,*7E
1496210747.17,26317,19.25,74148.3,8.63,-15.25,-14.79,0,*79
1496210748.42,26318,19.25,74162.8,8.59,-14.79,-14.11,0,*79
1496210749.65,26319,19.25,74160.8,8.59,-14.37,-13.55,0,*75
1496210750.87,26320,19.25,74154.8,8.57,-14.61,-13.87,0,*7D
1496210752.14,26321,19.25,74144.8,8.55,-15.57,-14.83,0,*79
1496210753.33,26322,19.25,74146.3,8.53,-14.65,-13.93,0,*7A
1496210754.56,26323,19.25,74134.5,8.53,-14.33,-13.61,0,*75
1496210755.79,26324,19.25,74138.8,8.53,-13.07,-12.35,0,*72
1496210757.08,26325,19.25,74132.8,8.55,-11.29,-10.67,0,*7E
1496210758.33,26326,19.25,74142.5,8.55,-11.51,-10.93,0,*79
1496210759.56,26327,19.25,74142.8,8.57,-12.29,-11.59,0,*71
1496210760.81,26328,19.25,74152.8,8.59,-11.67,-10.89,0,*75
1496210762.07,26329,19.25,74158.3,8.59,-11.59,-10.89,0,*79
1496210763.33,26330,19.25,74160.3,8.65,-12.11,-10.79,0,*7E
1496210764.55,26331,19.25,74160.5,8.65,-11.77,-10.23,0,*73
1496210765.8,26332,19.25,74162.8,8.63,-10.45,-10.71,0,*71
1496210767.0,26333,19.25,74154.8,8.65,-11.19,-11.19,0,*71
1496210768.24,26334,19.25,74150.8,8.63,-12.25,-12.89,0,*76
1496210769.49,26335,19.25,74146.0,8.63,-12.21,-11.51,0,*75
1496210770.73,26336,19.25,74140.0,8.59,-10.19,-10.27,0,*76
1496210771.97,26337,19.25,74154.3,8.59,-8.51,-8.41,0,*7B
1496210773.17,26338,19.25,74158.5,8.65,-8.45,-8.37,0,*7F
1496210774.39,26339,19.25,74166.0,8.65,-8.93,-8.11,0,*71
1496210775.64,26340,19.25,74176.3,8.67,-8.55,-7.77,0,*78
1496210776.83,26341,19.25,74170.0,8.69,-10.53,-9.67,0,*47
1496210778.1,26342,19.25,74166.3,8.69,-11.63,-10.67,0,*7E
1496210779.36,26343,19.25,74156.8,8.69,-12.07,-11.63,0,*7B
1496210780.61,26344,19.25,74162.0,8.67,-12.21,-12.15,0,*74
1496210781.87,26345,19.25,74152.8,8.65,-13.01,-11.93,0,*79
1496210783.1,26346,19.25,74142.0,8.65,-11.55,-10.23,0,*73
1496210784.35,26347,19.25,74148.8,8.63,-9.49,-8.37,0,*7C
1496210785.54,26348,19.25,74152.8,8.65,-9.71,-8.21,0,*79
1496210786.75,26349,19.25,74158.0,8.65,-9.57,-6.77,0,*71
1496210788.02,26350,19.25,74162.3,8.67,-7.95,-5.31,0,*7A
1496210789.21,26351,19.25,74168.8,8.69,-6.69,-4.61,0,*73
1496210790.45,26352,19.25,74172.3,8.71,-4.57,-4.73,0,*75
1496210791.68,26353,19.25,74170.5,8.73,-4.73,-6.27,0,*73
1496210792.9,26354,19.25,74168.5,8.73,-3.79,-5.73,0,*7B
1496210794.12,26355,19.25,74170.5,8.75,-4.21,-6.43,0,*76
1496210795.37,26356,19.25,74168.0,8.77,-5.07,-6.85,0,*78
1496210796.61,26357,19.25,74160.5,8.77,-6.19,-8.33,0,*76
1496210797.83,26358,19.25,74170.5,8.77,-7.83,-8.89,0,*7A
1496210799.04,26359,19.25,74168.3,8.79,-8.29,-8.81,0,*72
1496210800.28,26360,19.25,74172.5,8.81,-8.41,-9.11,0,*79
1496210801.47,26361,19.25,74178.5,8.79,-8.67,-9.05,0,*7E
1496210802.72,26362,19.25,74172.8,8.81,-9.49,-10.01,0,*4B
1496210803.95,26363,19.25,74176.3,8.81,-10.23,-10.49,0,*72
1496210805.18,26364,19.25,74178.0,8.79,-11.55,-10.35,0,*79
1496210806.42,26365,19.25,74182.0,8.81,-10.75,-9.19,0,*4A
1496210807.64,26366,19.25,74176.8,8.81,-10.01,-8.41,0,*46
1496210808.86,26367,19.25,74174.0,8.79,-9.27,-7.99,0,*76
1496210810.1,26368,19.25,74166.3,8.81,-9.41,-6.43,0,*78
1496210811.32,26369,19.25,74174.5,8.79,-9.37,-5.35,0,*7D
1496210812.53,26370,19.25,74170.0,8.79,-4.93,-1.55,0,*74
1496210813.74,26371,19.25,74166.5,8.81,-3.19,-1.29,0,*7C
1496210814.98,26372,19.25,74168.5,8.81,-1.91,-1.21,0,*75
1496210816.17,26373,19.25,74172.5,8.79,-1.67,-2.79,0,*74
1496210817.38,26374,19.25,74172.5,8.79,-2.19,-2.71,0,*71
1496210818.6,26375,19.25,74170.3,8.81,-3.31,-3.79,0,*75
1496210819.82,26376,19.25,74168.8,8.81,-3.03,-3.91,0,*71
1496210821.01,26377,19.25,74170.5,8.79,-2.79,-2.79,0,*7C
1496210822.24,26378,19.25,74172.8,8.81,-3.71,-2.27,0,*76
1496210823.45,26379,19.25,74176.0,8.81,-1.79,-1.17,0,*7D
1496210824.69,26380,19.25,74170.8,8.85,-0.89,-1.29,0,*4C
1496210825.87,26381,19.25,74172.0,8.87,-0.57,-1.21,0,*44
1496210827.08,26382,19.25,74176.8,8.85,-0.49,-1.71,0,*4F
1496210828.31,26383,19.25,74180.3,8.87,-2.07,-3.71,0,*76
1496210829.53,26384,19.25,74172.8,8.87,-4.25,-7.65,0,*76
1496210830.75,26385,19.25,74174.8,8.85,-10.53,-12.47,0,*75
1496210831.98,26386,19.25,74178.5,8.85,-12.97,-12.47,0,*7C
1496210833.2,26387,19.25,74172.8,8.79,-10.63,-9.75,0,*4C
1496210834.44,26388,19.25,74174.5,8.75,-12.57,-13.47,0,*70
1496210835.7,26389,19.25,74170.3,8.75,-12.29,-11.89,0,*78
1496210836.95,26390,19.25,74176.8,8.71,-10.97,-11.29,0,*79
1496210838.18,26391,19.25,74172.0,8.73,-10.97,-10.41,0,*75
1496210839.41,26392,19.25,74172.3,8.69,-11.37,-11.23,0,*73
1496210840.64,26393,19.25,74172.5,8.69,-11.01,-11.51,0,*72
1496210841.9,26394,19.25,74168.3,8.67,-12.47,-11.89,0,*7F
1496210843.14,26395,19.25,74172.8,8.63,-9.19,-9.83,0,*78
1496210844.38,26396,19.25,74176.8,8.63,-8.67,-9.45,0,*79
1496210845.58,26397,19.25,74176.3,8.65,-9.71,-9.05,0,*7C
1496210846.8,26398,19.25,74172.3,8.65,-7.87,-8.11,0,*70
1496210848.01,26399,19.25,74174.5,8.65,-7.53,-7.69,0,*78
1496210849.26,26400,19.25,74172.0,8.67,-8.63,-7.35,0,*78
1496210850.48,26401,19.25,74168.0,8.67,-6.73,-4.65,0,*70
1496210851.73,26402,19.25,74174.0,8.67,-4.85,-3.43,0,*7B
1496210852.97,26403,19.25,74172.0,8.71,-3.43,-4.21,0,*73
1496210854.24,26404,19.25,74172.5,8.71,-4.85,-5.07,0,*7C
1496210855.48,26405,19.25,74172.3,8.71,-6.31,-7.43,0,*72
1496210856.72,26406,19.25,74168.3,8.73,-7.57,-8.11,0,*7A
1496210857.93,26407,19.25,74172.3,8.73,-8.67,-8.11,0,*77
1496210859.18,26408,19.25,74176.3,8.75,-9.15,-8.89,0,*7B
1496210860.4,26409,19.25,74180.5,8.75,-9.71,-8.97,0,*77
1496210861.61,26410,19.25,74176.3,8.75,-8.17,-7.53,0,*79
1496210862.82,26411,19.25,74180.8,8.75,-8.29,-7.11,0,*73
1496210864.08,26412,19.25,74176.8,8.75,-7.35,-4.73,0,*75
1496210865.29,26413,19.25,74176.3,8.75,-6.05,-3.95,0,*79
1496210866.5,26414,19.25,74174.3,8.75,-4.99,-3.95,0,*79
1496210867.71,26415,19.25,74180.0,8.73,-5.31,-3.39,0,*7B
1496210868.93,26416,19.25,74184.3,8.71,-4.69,-3.31,0,*7E
1496210870.15,26417,19.25,74172.0,8.71,-3.79,-2.83,0,*71
1496210871.37,26418,19.25,74170.3,8.67,-3.19,-2.87,0,*7B
1496210872.59,26419,19.25,74170.5,8.69,-3.63,-3.35,0,*71
1496210873.84,26420,19.25,74172.3,8.67,-3.95,-2.47,0,*78
1496210875.05,26421,19.25,74172.0,8.67,-2.23,-0.61,0,*43
1496210876.28,26422,19.25,74170.5,8.67,-0.81,0.91,0,*58
1496210877.45,26423,19.25,74176.3,8.69,-0.61,1.41,0,*65
1496210878.67,26424,19.25,74172.3,8.69,0.41,2.43,0,*4C
1496210879.89,26425,19.25,74168.8,8.69,0.47,1.59,0,*43
1496210881.12,26426,19.25,74170.3,8.69,1.71,2.25,0,*7C
1496210882.35,26427,19.25,74174.5,8.69,1.93,2.25,0,*71
1496210883.58,26428,19.25,74178.3,8.69,2.13,2.09,0,*7B
1496210884.79,26429,19.25,74172.8,8.69,1.93,1.75,0,*79
1496210885.98,26430,19.25,74178.0,8.71,0.05,-0.07,0,*5F
1496210887.21,26431,19.25,74180.3,8.71,0.17,0.29,0,*7C
1496210888.42,26432,19.25,74174.5,8.67,-0.11,-0.07,0,*42
1496210889.61,26433,19.25,74154.0,8.67,0.01,-0.49,0,*65
1496210890.87,26434,19.25,74166.3,8.63,1.55,0.83,0,*4D
1496210892.1,26435,19.25,74172.3,8.65,2.05,1.25,0,*71
1496210893.3,26436,19.25,74166.3,8.65,0.71,-0.49,0,*55
1496210894.49,26437,19.25,74162.8,8.65,-1.63,-2.15,0,*70
1496210895.71,26438,19.25,74158.8,8.65,-3.35,-1.09,0,*70
1496210896.95,26439,19.25,74166.0,8.65,-1.13,1.37,0,*57
1496210898.18,26440,19.25,74170.0,8.67,1.83,2.43,0,*7F
1496210899.42,26441,19.25,74176.8,8.69,3.15,3.03,0,*78
1496210900.67,26442,19.25,74176.0,8.67,1.93,1.71,0,*7E
1496210901.85,26443,19.25,74174.3,8.69,1.83,1.83,0,*7D
1496210903.09,26444,19.25,74170.5,8.69,1.37,1.47,0,*7D
1496210904.32,26445,19.25,74168.5,8.69,1.37,1.47,0,*7C
1496210905.55,26446,19.25,74164.3,8.69,1.47,1.09,0,*72
1496210906.8,26447,19.25,74164.0,8.71,1.67,1.67,0,*70
1496210908.03,26448,19.25,74158.8,8.73,2.01,2.51,0,*78
1496210909.25,26449,19.25,74160.3,8.75,2.35,3.03,0,*7E
1496210910.49,26450,19.25,74162.5,8.77,2.43,3.89,0,*77
1496210911.7,26451,19.25,74162.8,8.79,3.29,4.63,0,*76
1496210912.94,26452,19.25,74160.5,8.85,4.37,4.97,0,*75
1496210914.19,26453,19.25,74158.8,8.85,4.67,4.67,0,*7E
1496210915.45,26454,19.25,74158.8,8.85,3.67,3.49,0,*75
1496210916.7,26455,19.25,74156.8,8.85,3.37,3.37,0,*78
1496210917.93,26456,19.25,74156.3,8.85,4.07,3.97,0,*75
1496210919.14,26457,19.25,74156.5,8.85,4.07,4.19,0,*75
1496210920.34,26458,19.25,74158.0,8.85,4.07,3.93,0,*7F
1496210921.58,26459,19.25,74162.3,8.85,3.67,3.25,0,*72